[[{"header":{"parameterUnit":"m.s-1","parameterCategory":1,"la1":30.2991,"la2":30.254,"lo1":-89.0895,"lo2":-89.0444,"dy":0.0017,"dx":0.0017,"nx":28,"ny":28,"refTime":"2023-08-30T21:00:00:Z","depth":0,"parameterNumber":2,"parameterNumberName":"U-component_of_WINDS"},"data":[0,0,0,0,0,0,0,0,0,0,0,0,0,0,0,0,0,0,0,0,0,0,0,0,0,0,0,0,0,0,0,0,0,0,0,0,0,0,0,0,0,0,0,0,0,0,0,0,0,0,0,0,0,0,0,0,0,0,-0.7473,-0.7473,0,-0.7481,-0.7481,-0.7481,-0.7399,-0.7397,-0.7394,-0.7392,-0.7404,-0.7407,-0.7409,0,0,0,0,0,0,0,0,0,0,0,0,0,-0.7389,-0.7391,-0.7473,-0.7473,-0.7473,-0.7481,-0.7481,-0.7481,-0.7399,-0.7397,-0.7394,-0.7391,-0.7404,-0.7406,-0.7409,0,0,0,0,0,0,0,0,0,0,0,0,0,-0.7414,-0.7391,-0.7473,-0.7433,-0.7429,-0.7481,-0.7481,-0.7481,-0.74,-0.7397,-0.7393,-0.739,-0.7403,-0.7406,-0.741,-0.7501,0,0,-0.7421,-0.7423,0,0,0,0,0,0,0,0,-0.7413,-0.7417,-0.7439,-0.7436,-0.7432,-0.7435,-0.7456,-0.7488,-0.7401,-0.7411,-0.7392,-0.7388,-0.7418,-0.742,-0.7429,-0.7501,-0.7502,-0.7421,-0.7424,-0.7425,-0.7426,0,0,0,0,0,0,0,-0.7411,-0.7417,-0.7476,-0.7439,-0.7435,-0.7416,-0.7415,-0.7462,-0.7434,-0.741,-0.7404,-0.7406,-0.7415,-0.7426,-0.7429,-0.7502,-0.7421,-0.7424,-0.7427,-0.7428,-0.765,-0.7653,0,0,0,0,0,0,-0.7414,-0.7416,-0.7476,-0.7476,-0.7414,-0.742,-0.742,-0.7438,-0.7433,-0.7429,-0.7409,-0.7402,-0.7421,-0.7425,-0.7429,-0.7536,-0.7425,-0.7428,-0.7431,-0.7646,-0.7651,-0.7655,0,0,0,0,0,0,-0.7413,-0.7421,-0.7475,-0.7444,-0.745,-0.7425,-0.7446,-0.744,-0.745,-0.7432,-0.7427,-0.7425,-0.7419,-0.7424,-0.7483,-0.7535,-0.743,-0.7433,-0.7642,-0.7648,-0.7653,-0.7751,0,0,0,0,0,0,-0.7411,-0.742,-0.7454,-0.7446,-0.7452,-0.753,-0.7449,-0.7442,-0.7456,-0.7448,-0.7445,-0.7442,-0.7416,-0.7478,-0.7487,-0.7539,-0.7436,-0.7637,-0.7644,-0.7651,-0.7743,-0.7759,-0.7773,0,0,0,0,0,-0.7408,-0.7483,-0.7457,-0.7464,-0.7494,-0.7533,-0.7536,-0.7504,-0.7461,-0.7495,-0.7483,-0.7442,-0.7528,-0.7485,-0.7494,-0.7548,-0.7634,-0.7642,-0.765,-0.7737,-0.7756,-0.7773,0,0,0,0,0,0,-0.75,-0.7481,-0.7452,-0.7525,-0.7531,-0.7519,-0.7561,-0.7526,-0.7546,-0.7537,-0.7497,-0.7497,-0.7564,-0.7561,-0.7514,-0.7636,-0.7573,-0.7584,-0.7636,-0.7654,-0.7669,-0.767,-0.7439,0,0,0,0,0,-0.7528,-0.756,-0.7542,-0.7609,-0.7613,-0.7587,-0.7603,-0.7577,-0.7582,-0.7585,-0.7577,-0.7585,-0.7613,-0.7633,-0.7658,-0.7741,-0.774,-0.7782,-0.7797,-0.781,-0.782,-0.7865,-0.7884,-0.7682,-0.7682,-0.7682,0,0,-0.7588,-0.7581,-0.7605,-0.7627,-0.7629,-0.7665,-0.759,-0.7631,-0.7657,-0.7591,-0.7648,-0.7642,-0.7647,-0.772,-0.7751,-0.772,-0.7875,-0.782,-0.783,-0.7834,-0.7876,-0.7895,-0.7912,-0.7688,-0.7687,-0.7686,0,0,-0.7716,-0.7713,-0.7769,-0.7772,-0.7774,-0.7756,-0.7769,-0.7762,-0.7755,-0.781,-0.7762,-0.7793,-0.7842,-0.7849,-0.7858,-0.7986,-0.795,-0.7996,-0.8075,-0.812,-0.8136,-0.8149,-0.8197,-0.8215,-0.8005,-0.8006,-0.8006,0,-0.7791,-0.7841,-0.7802,-0.7847,-0.7858,-0.7798,-0.7855,-0.786,-0.7871,-0.7881,-0.7845,-0.7906,-0.7905,-0.7978,-0.801,-0.8019,-0.8034,-0.7997,-0.8136,-0.815,-0.8162,-0.8207,-0.8225,-0.8011,-0.8011,-0.801,-0.801,0,-0.7934,-0.797,-0.8014,-0.8026,-0.8042,-0.8093,-0.8062,-0.8084,-0.8056,-0.8042,-0.8099,-0.8095,-0.8119,-0.8134,-0.8108,-0.8204,-0.8184,-0.8143,-0.808,-0.8188,-0.823,-0.8247,-0.802,-0.8018,-0.8016,-0.8014,0,0,-0.8123,-0.811,-0.8128,-0.8132,-0.813,-0.8157,-0.8204,-0.8226,-0.8246,-0.8255,-0.8295,-0.8338,-0.8299,-0.831,-0.8283,-0.8322,-0.8426,-0.8275,-0.8275,-0.8306,-0.8533,-0.8567,-0.8587,-0.84,-0.8403,-0.8405,-0.8533,0,-0.8249,-0.8329,-0.8295,-0.8379,-0.8412,-0.8354,-0.8396,-0.8399,-0.8387,-0.8414,-0.8399,-0.8431,-0.8376,-0.8383,-0.8418,-0.8406,-0.8471,-0.8396,-0.8439,-0.8441,-0.8442,-0.8609,-0.8644,-0.8766,-0.8549,-0.8552,-0.8554,0,-0.8408,-0.8422,-0.851,-0.8501,-0.8513,-0.8551,-0.8569,-0.8594,-0.8597,-0.8585,-0.8597,-0.8561,-0.8608,-0.8543,-0.8608,-0.8557,-0.8572,-0.8568,-0.8572,-0.8578,-0.8506,-0.8621,-0.8803,-0.8823,-0.8579,-0.8577,-0.8575,0,-0.854,-0.8581,-0.8638,-0.8644,-0.8634,-0.8663,-0.866,-0.8659,-0.8674,-0.8689,-0.8699,-0.8719,-0.8732,-0.8748,-0.872,-0.8675,-0.879,-0.8721,-0.8783,-0.8784,-0.8812,-0.8812,-0.9002,-0.8817,-0.8817,-0.8817,-0.8816,0,-0.8686,-0.8743,-0.8698,-0.8734,-0.8795,-0.8754,-0.8816,-0.8808,-0.8807,-0.8841,-0.8791,-0.8824,-0.8783,-0.8812,-0.879,-0.8848,-0.8853,-0.8846,-0.884,-0.8852,-0.8854,-0.8864,-0.8856,-0.8821,-0.882,-0.8819,-0.8819,0,-0.8846,-0.8818,-0.8877,-0.8862,-0.886,-0.8906,-0.8894,-0.8927,-0.891,-0.8953,-0.8961,-0.8935,-0.8966,-0.8938,-0.8969,-0.8954,-0.9032,-0.9012,-0.9031,-0.9027,-0.9091,-0.9086,-0.9298,-0.9324,-0.9119,-0.9121,-0.9123,0,-0.8943,-0.8984,-0.8974,-0.8992,-0.8993,-0.9023,-0.9038,-0.8999,-0.9017,-0.9022,-0.9055,-0.9082,-0.9102,-0.9155,-0.914,-0.9163,-0.9145,-0.9217,-0.9149,-0.916,-0.9149,-0.9149,-0.9153,-0.9233,-0.9235,-0.9237,-0.9239,0,-0.9119,-0.9102,-0.9125,-0.9143,-0.9162,-0.9174,-0.9183,-0.9201,-0.9161,-0.9184,-0.9215,-0.923,-0.926,-0.9289,-0.9306,-0.9304,-0.9267,-0.926,-0.9276,-0.9291,-0.9301,-0.9298,-0.9073,-0.9256,-0.9254,-0.9253,-0.9252,-0.9252,-0.9252,-0.9286,-0.9284,-0.9311,-0.9313,-0.9322,-0.9353,-0.9338,-0.9363,-0.9384,-0.9359,-0.9398,-0.9399,-0.9419,-0.9421,-0.9451,-0.9422,-0.9444,-0.945,-0.9457,-0.9468,-0.9293,-0.9454,-0.9454,-0.9453,-0.9453,-0.9452,0,-0.9427,-0.9422,-0.9447,-0.946,-0.9482,-0.944,-0.9448,-0.9469,-0.9503,-0.9507,-0.9527,-0.9563,-0.9589,-0.9575,-0.9598,-0.9625,-0.9608,-0.9632,-0.9632,-0.9632,-0.9492,-0.9477,-0.9646,-0.9646,-0.9646,-0.9646,-0.9646,-0.9646,-0.9521,-0.9578,-0.9561,-0.9619,-0.9613,-0.965,-0.9658,-0.9666,-0.9669,-0.9711,-0.9732,-0.9721,-0.9718,-0.974,-0.9763,-0.9758,-0.977,-0.9802,-0.9791,-0.9661,-0.9642,-0.9624,-0.961,-0.9804,-0.9804,-0.9929,-0.993,-0.9931]},{"header":{"parameterUnit":"m.s-1","parameterCategory":1,"la1":30.2991,"la2":30.254,"lo1":-89.0895,"lo2":-89.0444,"dy":0.0017,"dx":0.0017,"nx":28,"ny":28,"refTime":"2023-08-30T21:00:00:Z","depth":0,"parameterNumber":3,"parameterNumberName":"V-component_of_WINDS"},"data":[0,0,0,0,0,0,0,0,0,0,0,0,0,0,0,0,0,0,0,0,0,0,0,0,0,0,0,0,0,0,0,0,0,0,0,0,0,0,0,0,0,0,0,0,0,0,0,0,0,0,0,0,0,0,0,0,0,0,-4.3475,-4.3476,0,-4.3541,-4.3542,-4.3542,-4.3461,-4.3458,-4.3455,-4.3453,-4.3517,-4.3522,-4.3526,0,0,0,0,0,0,0,0,0,0,0,0,0,-4.3276,-4.328,-4.3475,-4.3476,-4.3477,-4.3541,-4.3542,-4.3543,-4.3462,-4.3458,-4.3455,-4.3451,-4.3516,-4.3521,-4.3527,0,0,0,0,0,0,0,0,0,0,0,0,0,-4.3354,-4.3282,-4.3475,-4.3444,-4.3442,-4.3541,-4.3542,-4.3543,-4.3463,-4.3458,-4.3454,-4.345,-4.3514,-4.3521,-4.3527,-4.3658,0,0,-4.3548,-4.3551,0,0,0,0,0,0,0,0,-4.335,-4.3362,-4.3448,-4.3447,-4.3444,-4.3488,-4.3495,-4.3582,-4.3464,-4.3455,-4.3453,-4.3447,-4.3511,-4.3518,-4.354,-4.3661,-4.3664,-4.3549,-4.3553,-4.3556,-4.3557,0,0,0,0,0,0,0,-4.3345,-4.3358,-4.3501,-4.3449,-4.3447,-4.3426,-4.3432,-4.3511,-4.3507,-4.3455,-4.345,-4.3459,-4.3509,-4.3534,-4.3541,-4.3665,-4.3548,-4.3554,-4.3559,-4.3561,-4.3897,-4.3901,0,0,0,0,0,0,-4.3343,-4.3354,-4.3499,-4.3503,-4.3385,-4.3433,-4.344,-4.3479,-4.3506,-4.3506,-4.3462,-4.3455,-4.3524,-4.3533,-4.3543,-4.3698,-4.3556,-4.3562,-4.3566,-4.3892,-4.3898,-4.3903,0,0,0,0,0,0,-4.3339,-4.3357,-4.3496,-4.3427,-4.3443,-4.3442,-4.3485,-4.3482,-4.3507,-4.3511,-4.351,-4.3488,-4.3521,-4.3533,-4.363,-4.3699,-4.3565,-4.3571,-4.3886,-4.3894,-4.39,-4.4009,0,0,0,0,0,0,-4.3334,-4.3356,-4.3407,-4.3429,-4.3447,-4.3584,-4.349,-4.3487,-4.3519,-4.3509,-4.3535,-4.3535,-4.3519,-4.3621,-4.3637,-4.3706,-4.3576,-4.388,-4.3889,-4.3898,-4.3999,-4.4019,-4.4036,0,0,0,0,0,-4.3327,-4.3434,-4.341,-4.3427,-4.3511,-4.3588,-4.3598,-4.3578,-4.3525,-4.3575,-4.3578,-4.3535,-4.3689,-4.3631,-4.3649,-4.3721,-4.3875,-4.3887,-4.3897,-4.3991,-4.4015,-4.4036,0,0,0,0,0,0,-4.3419,-4.3436,-4.3409,-4.3527,-4.3557,-4.3574,-4.3637,-4.3604,-4.3649,-4.3638,-4.3609,-4.3616,-4.3719,-4.3729,-4.3665,-4.3849,-4.3773,-4.3788,-4.3838,-4.3862,-4.388,-4.3875,-4.3582,0,0,0,0,0,-4.3453,-4.3515,-4.3527,-4.3629,-4.3646,-4.3639,-4.3672,-4.3654,-4.3683,-4.3695,-4.3705,-4.3734,-4.3789,-4.3826,-4.3876,-4.4,-4.4004,-4.4058,-4.4077,-4.4092,-4.4105,-4.4171,-4.4195,-4.3939,-4.3939,-4.3939,0,0,-4.3524,-4.3541,-4.3582,-4.3648,-4.3669,-4.3733,-4.365,-4.3722,-4.3769,-4.3705,-4.3798,-4.3806,-4.3837,-4.3948,-4.3997,-4.3959,-4.4177,-4.4106,-4.4118,-4.4123,-4.4185,-4.4209,-4.423,-4.3946,-4.3945,-4.3944,0,0,-4.3685,-4.3705,-4.3793,-4.3815,-4.3848,-4.3843,-4.3864,-4.3887,-4.389,-4.3983,-4.3936,-4.3991,-4.4087,-4.411,-4.4135,-4.4306,-4.4267,-4.4323,-4.4419,-4.4483,-4.4504,-4.4521,-4.4582,-4.4604,-4.4336,-4.4336,-4.4336,0,-4.3769,-4.3865,-4.3842,-4.3917,-4.3947,-4.3893,-4.3981,-4.4004,-4.4051,-4.4073,-4.403,-4.4149,-4.4166,-4.4281,-4.4323,-4.4345,-4.4367,-4.432,-4.4503,-4.452,-4.4536,-4.4594,-4.4617,-4.4343,-4.4342,-4.4341,-4.4341,0,-4.3966,-4.4033,-4.4099,-4.4148,-4.4185,-4.4267,-4.4255,-4.4295,-4.4274,-4.4273,-4.4367,-4.4385,-4.4439,-4.4465,-4.4444,-4.4578,-4.4553,-4.4507,-4.4431,-4.4568,-4.4621,-4.4643,-4.4352,-4.435,-4.4348,-4.4346,0,0,-4.4187,-4.4222,-4.4247,-4.4268,-4.43,-4.4351,-4.4429,-4.4482,-4.4518,-4.4552,-4.4617,-4.4699,-4.4656,-4.4684,-4.4665,-4.4722,-4.4855,-4.4669,-4.4669,-4.4703,-4.5003,-4.5038,-4.5064,-4.483,-4.4834,-4.4837,-4.5001,0,-4.4349,-4.4486,-4.4467,-4.4598,-4.4659,-4.4609,-4.4677,-4.4704,-4.4705,-4.4756,-4.4756,-4.4815,-4.4755,-4.4772,-4.4825,-4.4828,-4.4915,-4.4816,-4.4889,-4.4892,-4.4883,-4.5092,-4.5128,-4.5281,-4.5021,-4.5025,-4.5027,0,-4.4556,-4.4599,-4.4737,-4.476,-4.4784,-4.4846,-4.4893,-4.4943,-4.4972,-4.4969,-4.5,-4.4971,-4.5048,-4.4971,-4.5076,-4.5009,-4.5037,-4.5043,-4.5048,-4.5054,-4.4968,-4.5103,-4.533,-4.5353,-4.506,-4.5058,-4.5055,0,-4.4704,-4.4796,-4.489,-4.491,-4.4939,-4.4983,-4.4997,-4.5021,-4.5054,-4.5095,-4.5116,-4.5165,-4.5192,-4.523,-4.5214,-4.5159,-4.5323,-4.5244,-4.5322,-4.5322,-4.5358,-4.5356,-4.5593,-4.5377,-4.5377,-4.5376,-4.5376,0,-4.4887,-4.4973,-4.4957,-4.5015,-4.5109,-4.5086,-4.518,-4.5188,-4.521,-4.5268,-4.5226,-4.5281,-4.5257,-4.531,-4.5298,-4.5387,-4.54,-4.5399,-4.5394,-4.5402,-4.5403,-4.5421,-4.541,-4.5382,-4.5381,-4.538,-4.5379,0,-4.5068,-4.5061,-4.516,-4.5179,-4.5186,-4.5255,-4.5271,-4.5324,-4.5322,-4.5396,-4.5412,-4.5408,-4.5468,-4.5457,-4.5523,-4.5514,-4.5626,-4.5608,-4.5617,-4.5613,-4.5691,-4.5684,-4.5947,-4.5981,-4.5744,-4.5746,-4.5748,0,-4.5185,-4.525,-4.5276,-4.5313,-4.533,-4.5389,-4.5422,-4.5402,-4.5439,-4.5476,-4.5525,-4.5582,-4.5626,-4.5725,-4.5727,-4.5777,-4.5761,-4.585,-4.5768,-4.5774,-4.5762,-4.5758,-4.5764,-4.5866,-4.5868,-4.5871,-4.5872,0,-4.5393,-4.5386,-4.5437,-4.5487,-4.5529,-4.5567,-4.5601,-4.5633,-4.5615,-4.5658,-4.5719,-4.5754,-4.5822,-4.5878,-4.5925,-4.5937,-4.5902,-4.5898,-4.5919,-4.5928,-4.593,-4.5929,-4.5661,-4.5892,-4.589,-4.5889,-4.5888,-4.5887,-4.5545,-4.5601,-4.5628,-4.5686,-4.571,-4.5742,-4.5794,-4.5799,-4.585,-4.5904,-4.5889,-4.5958,-4.5985,-4.6044,-4.6062,-4.6115,-4.6082,-4.6112,-4.612,-4.6127,-4.6137,-4.5921,-4.6124,-4.6123,-4.6123,-4.6122,-4.6122,0,-4.5751,-4.5767,-4.582,-4.587,-4.5915,-4.5879,-4.5914,-4.5954,-4.6017,-4.6045,-4.6089,-4.616,-4.6214,-4.6222,-4.6273,-4.6314,-4.6299,-4.6328,-4.6325,-4.6328,-4.6164,-4.6141,-4.634,-4.634,-4.634,-4.634,-4.6339,-4.6339,-4.5864,-4.5956,-4.5953,-4.6055,-4.6069,-4.6139,-4.6162,-4.6192,-4.6214,-4.6295,-4.634,-4.6345,-4.6364,-4.6417,-4.6465,-4.6465,-4.6486,-4.6521,-4.6516,-4.6362,-4.634,-4.6319,-4.6298,-4.6526,-4.6526,-4.6676,-4.6677,-4.6678]}]]